This is the latest recevied weather packets stored in our database for station/object KJ4EWA. If no packets are shown the sender has not sent any weather packets the latest 10 day(s).
| Time | Temp. | Humidity | Pressure | Rain* | Wind** | Luminosity | Snow |
|---|---|---|---|---|---|---|---|
| 1777898781 | 10° C | 99% | 1021.6 hPa | 0 mm | - | 31 W/m² | - |
| 1777898479 | 10° C | 99% | 1021.3 hPa | 0 mm | - | 33 W/m² | - |
| 1777898176 | 9.44° C | 99% | 1021.5 hPa | 0 mm | - | 34 W/m² | - |
| 1777897874 | 9.44° C | 99% | 1021.5 hPa | 0 mm | - | 33 W/m² | - |
| 1777897569 | 8.89° C | 99% | 1021.4 hPa | 0 mm | - | 29 W/m² | - |
| 1777897265 | 8.33° C | 99% | 1021.5 hPa | 0 mm | - | 26 W/m² | - |
| 1777896961 | 7.78° C | 99% | 1021.3 hPa | 0 mm | - | 27 W/m² | - |
| 1777896658 | 7.78° C | 99% | 1021.2 hPa | 0 mm | - | 24 W/m² | - |
| 1777896355 | 7.78° C | 99% | 1021.2 hPa | 0 mm | - | 22 W/m² | - |
| 1777896053 | 7.22° C | 99% | 1021.1 hPa | 0 mm | - | 18 W/m² | - |
| 1777895751 | 6.67° C | 99% | 1021.1 hPa | 0 mm | - | 17 W/m² | - |
| 1777895448 | 6.67° C | 99% | 1021.1 hPa | 0 mm | - | 16 W/m² | - |
| 1777895146 | 6.67° C | 99% | 1021.1 hPa | 0 mm | - | 15 W/m² | - |
| 1777894843 | 6.67° C | 99% | 1021 hPa | 0 mm | - | 12 W/m² | - |
| 1777894539 | 6.67° C | 99% | 1021.1 hPa | 0 mm | - | 11 W/m² | - |
| 1777894237 | 6.67° C | 99% | 1021 hPa | 0 mm | - | 10 W/m² | - |
| 1777893934 | 6.67° C | 99% | 1021 hPa | 0 mm | - | 6 W/m² | - |
| 1777893630 | 6.67° C | 99% | 1020.9 hPa | 0 mm | - | 4 W/m² | - |
| 1777893327 | 6.67° C | 99% | 1021 hPa | 0 mm | - | 2 W/m² | - |
| 1777893022 | 6.67° C | 99% | 1020.9 hPa | 0 mm | - | 0 W/m² | - |
| 1777892720 | 6.67° C | 99% | 1021 hPa | 0 mm | - | 0 W/m² | - |
| 1777892421 | 6.67° C | 99% | 1021 hPa | 0 mm | - | 0 W/m² | - |
| 1777892117 | 6.67° C | 99% | 1020.9 hPa | 0 mm | - | 0 W/m² | - |
| 1777891814 | 6.67° C | 99% | 1021 hPa | 0 mm | - | 0 W/m² | - |
| 1777891511 | 6.67° C | 99% | 1021 hPa | 0 mm | - | 0 W/m² | - |
* Rain latest hour (hover to see other rain measurements)
** Current wind speed in m/s (hover to see current wind gust speed)